• In Schweiz
  • Länderverzeichnis
  • Für 7 Tage
  • Wassertemperatur
  • Satellitenkarten
  • Wetterkarte
  • Widgets
  • user-avatar
    Anmelden

    Stündliche Wetter Alexandria

    Heute, 17 Dezember, Sonntag

    Zeit Temperatur Niederschläge Wind Luftdruck Luftfeuchtigkeit
    00:00 +15°C° 0 mm 4 m/S 765 mmHg 77%
    01:00 +15°C° 0 mm 4 m/S 765 mmHg 76%
    02:00 +14°C° 0 mm 4 m/S 764 mmHg 75%
    03:00 +14°C° 0 mm 4 m/S 764 mmHg 76%
    04:00 +14°C° 0 mm 4 m/S 764 mmHg 77%
    05:00 +14°C° 0 mm 4 m/S 764 mmHg 78%
    06:00 +14°C° 0 mm 4 m/S 764 mmHg 77%
    07:00 +14°C° 0 mm 3 m/S 764 mmHg 76%
    08:00 +16°C° 0 mm 3 m/S 764 mmHg 71%
    09:00 +18°C° 0 mm 3 m/S 764 mmHg 63%
    10:00 +20°C° 0 mm 3 m/S 764 mmHg 54%
    11:00 +21°C° 0 mm 3 m/S 764 mmHg 46%
    12:00 +22°C° 0 mm 3 m/S 763 mmHg 42%
    13:00 +24°C° 0 mm 3 m/S 763 mmHg 37%
    14:00 +25°C° 0 mm 2 m/S 763 mmHg 33%
    15:00 +24°C° 0 mm 2 m/S 763 mmHg 36%
    16:00 +23°C° 0 mm 2 m/S 763 mmHg 38%
    17:00 +22°C° 0 mm 1 m/S 763 mmHg 41%
    18:00 +21°C° 0 mm 1 m/S 763 mmHg 45%
    19:00 +21°C° 0 mm 1 m/S 763 mmHg 49%
    20:00 +20°C° 0 mm 1 m/S 763 mmHg 52%
    21:00 +20°C° 0 mm 1 m/S 763 mmHg 52%
    22:00 +20°C° 0 mm 1 m/S 764 mmHg 52%
    23:00 +20°C° 0 mm 1 m/S 764 mmHg 52%

    Morgen, 18 Dezember, Montag

    Zeit Temperatur Niederschläge Wind Luftdruck Luftfeuchtigkeit
    00:00 +20°C° 0 mm 1 m/S 764 mmHg 51%
    01:00 +20°C° 0 mm 1 m/S 764 mmHg 51%
    02:00 +20°C° 0 mm 1 m/S 764 mmHg 50%
    03:00 +20°C° 0 mm 1 m/S 764 mmHg 49%
    04:00 +20°C° 0 mm 1 m/S 764 mmHg 47%
    05:00 +20°C° 0 mm 1 m/S 764 mmHg 46%
    06:00 +20°C° 0 mm 1 m/S 764 mmHg 45%
    07:00 +21°C° 0 mm 1 m/S 764 mmHg 44%
    08:00 +19°C° 0 mm 0 m/S 764 mmHg 43%
    09:00 +22°C° 0 mm 1 m/S 764 mmHg 41%
    10:00 +23°C° 0 mm 1 m/S 765 mmHg 38%
    11:00 +23°C° 0 mm 1 m/S 765 mmHg 35%
    12:00 +24°C° 0 mm 1 m/S 764 mmHg 34%
    13:00 +24°C° 0 mm 1 m/S 764 mmHg 33%
    14:00 +24°C° 0 mm 2 m/S 764 mmHg 33%
    15:00 +24°C° 0 mm 2 m/S 764 mmHg 38%
    16:00 +22°C° 0 mm 3 m/S 764 mmHg 43%
    17:00 +21°C° 0 mm 3 m/S 764 mmHg 48%
    18:00 +20°C° 0 mm 3 m/S 764 mmHg 52%
    19:00 +20°C° 0 mm 3 m/S 764 mmHg 56%
    20:00 +19°C° 0 mm 3 m/S 764 mmHg 60%
    21:00 +19°C° 0 mm 3 m/S 764 mmHg 63%
    22:00 +19°C° 0 mm 3 m/S 764 mmHg 66%
    23:00 +18°C° 0 mm 3 m/S 764 mmHg 69%

    übermorgen, 19 Dezember, Dienstag

    Zeit Temperatur Niederschläge Wind Luftdruck Luftfeuchtigkeit
    00:00 +18°C° 0 mm 4 m/S 764 mmHg 71%
    01:00 +18°C° 0 mm 4 m/S 764 mmHg 72%
    02:00 +18°C° 0 mm 4 m/S 764 mmHg 74%
    03:00 +18°C° 0 mm 4 m/S 764 mmHg 75%
    04:00 +18°C° 0 mm 4 m/S 764 mmHg 75%
    05:00 +18°C° 0 mm 4 m/S 763 mmHg 76%
    06:00 +19°C° 0 mm 5 m/S 764 mmHg 75%
    07:00 +19°C° 0 mm 5 m/S 764 mmHg 74%
    08:00 +19°C° 0 mm 6 m/S 764 mmHg 73%
    09:00 +20°C° 0 mm 6 m/S 764 mmHg 70%
    10:00 +21°C° 0 mm 7 m/S 764 mmHg 66%
    11:00 +22°C° 0 mm 7 m/S 764 mmHg 62%
    12:00 +23°C° 0 mm 7 m/S 764 mmHg 61%
    13:00 +23°C° 0 mm 7 m/S 763 mmHg 61%
    14:00 +23°C° 0 mm 7 m/S 763 mmHg 60%
    15:00 +22°C° 0 mm 7 m/S 763 mmHg 63%
    16:00 +22°C° 0 mm 7 m/S 763 mmHg 67%
    17:00 +21°C° 0 mm 7 m/S 763 mmHg 70%
    18:00 +20°C° 0 mm 7 m/S 763 mmHg 73%
    19:00 +20°C° 0 mm 7 m/S 763 mmHg 76%
    20:00 +20°C° 0 mm 6 m/S 763 mmHg 79%
    21:00 +20°C° 0 mm 6 m/S 764 mmHg 80%
    22:00 +19°C° 0 mm 6 m/S 764 mmHg 80%
    23:00 +19°C° 0 mm 6 m/S 764 mmHg 81%

    20 Dezember, Mittwoch

    Zeit Temperatur Niederschläge Wind Luftdruck Luftfeuchtigkeit
    00:00 +19°C° 0 mm 6 m/S 763 mmHg 81%
    01:00 +19°C° 0 mm 6 m/S 763 mmHg 81%
    02:00 +19°C° 0 mm 6 m/S 763 mmHg 81%
    03:00 +19°C° 0 mm 6 m/S 763 mmHg 81%
    04:00 +19°C° 0 mm 6 m/S 763 mmHg 82%
    05:00 +19°C° 0 mm 6 m/S 763 mmHg 82%
    06:00 +19°C° 0 mm 6 m/S 763 mmHg 82%
    07:00 +19°C° 0 mm 5 m/S 763 mmHg 81%
    08:00 +19°C° 0 mm 5 m/S 763 mmHg 80%
    09:00 +21°C° 0 mm 5 m/S 764 mmHg 74%
    10:00 +22°C° 0 mm 5 m/S 764 mmHg 68%
    11:00 +23°C° 0 mm 5 m/S 764 mmHg 62%
    12:00 +23°C° 0 mm 6 m/S 763 mmHg 63%
    13:00 +23°C° 0 mm 6 m/S 763 mmHg 63%
    14:00 +23°C° 0 mm 6 m/S 763 mmHg 63%
    15:00 +22°C° 0 mm 6 m/S 763 mmHg 67%
    16:00 +21°C° 0 mm 7 m/S 763 mmHg 71%
    17:00 +20°C° 0 mm 7 m/S 763 mmHg 75%
    18:00 +20°C° 0 mm 6 m/S 764 mmHg 78%
    19:00 +19°C° 0 mm 6 m/S 764 mmHg 81%
    20:00 +19°C° 0 mm 6 m/S 764 mmHg 84%
    21:00 +19°C° 0 mm 6 m/S 764 mmHg 85%
    22:00 +19°C° 0 mm 6 m/S 765 mmHg 86%
    23:00 +19°C° 0 mm 5 m/S 765 mmHg 87%

    21 Dezember, Donnerstag

    Zeit Temperatur Niederschläge Wind Luftdruck Luftfeuchtigkeit
    00:00 +17°C° 0 mm 5 m/S 764 mmHg 87%
    01:00 +17°C° 0 mm 5 m/S 764 mmHg 88%
    02:00 +17°C° 0 mm 5 m/S 764 mmHg 88%
    03:00 +17°C° 0 mm 5 m/S 764 mmHg 88%
    04:00 +18°C° 0 mm 4 m/S 764 mmHg 88%
    05:00 +18°C° 0 mm 4 m/S 764 mmHg 88%
    06:00 +18°C° 0 mm 4 m/S 764 mmHg 86%
    07:00 +19°C° 0 mm 4 m/S 764 mmHg 85%
    08:00 +19°C° 0 mm 4 m/S 764 mmHg 83%
    09:00 +20°C° 0 mm 4 m/S 764 mmHg 78%
    10:00 +21°C° 0 mm 4 m/S 764 mmHg 72%
    11:00 +22°C° 0 mm 4 m/S 764 mmHg 67%
    12:00 +22°C° 0 mm 5 m/S 764 mmHg 64%
    13:00 +23°C° 0 mm 5 m/S 763 mmHg 62%
    14:00 +23°C° 0 mm 5 m/S 763 mmHg 59%
    15:00 +23°C° 0 mm 5 m/S 763 mmHg 64%
    16:00 +22°C° 0 mm 5 m/S 763 mmHg 68%
    17:00 +21°C° 0 mm 5 m/S 763 mmHg 73%
    18:00 +20°C° 0 mm 5 m/S 763 mmHg 75%
    19:00 +20°C° 0 mm 5 m/S 763 mmHg 77%
    20:00 +20°C° 0 mm 5 m/S 764 mmHg 80%
    21:00 +19°C° 0 mm 4 m/S 763 mmHg 81%
    22:00 +19°C° 0 mm 4 m/S 763 mmHg 83%
    23:00 +19°C° 0 mm 4 m/S 763 mmHg 85%

    22 Dezember, Freitag

    Zeit Temperatur Niederschläge Wind Luftdruck Luftfeuchtigkeit
    00:00 +19°C° 0 mm 4 m/S 763 mmHg 86%
    01:00 +19°C° 0 mm 4 m/S 763 mmHg 87%
    02:00 +19°C° 0 mm 4 m/S 763 mmHg 88%
    03:00 +19°C° 0 mm 4 m/S 763 mmHg 88%
    04:00 +19°C° 0 mm 4 m/S 763 mmHg 88%
    05:00 +19°C° 0 mm 5 m/S 762 mmHg 87%
    06:00 +19°C° 0 mm 5 m/S 763 mmHg 86%
    07:00 +19°C° 0 mm 4 m/S 763 mmHg 84%
    08:00 +19°C° 0 mm 4 m/S 763 mmHg 82%
    09:00 +20°C° 0 mm 4 m/S 763 mmHg 75%
    10:00 +21°C° 0 mm 4 m/S 762 mmHg 68%
    11:00 +23°C° 0 mm 4 m/S 762 mmHg 61%
    12:00 +23°C° 0 mm 4 m/S 761 mmHg 58%
    13:00 +25°C° 0 mm 5 m/S 761 mmHg 56%
    14:00 +25°C° 0 mm 5 m/S 760 mmHg 54%
    15:00 +23°C° 0 mm 5 m/S 760 mmHg 60%
    16:00 +22°C° 0 mm 5 m/S 760 mmHg 66%
    17:00 +21°C° 0 mm 6 m/S 760 mmHg 72%
    18:00 +20°C° 0 mm 5 m/S 760 mmHg 76%
    19:00 +19°C° 0 mm 5 m/S 760 mmHg 79%
    20:00 +19°C° 0 mm 5 m/S 760 mmHg 82%
    21:00 +19°C° 0 mm 4 m/S 760 mmHg 83%
    22:00 +18°C° 0 mm 4 m/S 760 mmHg 84%
    23:00 +18°C° 0 mm 3 m/S 760 mmHg 85%
    Mehr zeigen